RH
37 30 18 9 6 20 38 59 66 65 85 100 89 48 28 23 30 54 33 17 9 9 16 24 16 15 14 6 4 3 3 4 5 5 4 3 4 3 4 4 4 4 7
45 40 36 23 12 5 14 35 56 68 80 95 98 98 42 19 22 37 59 31 20 10 9 22 31 22 16 14 5 4 3 3 3 3 3 3 4 4 4 4 4 4 4
38 48 44 39 28 15 6 10 56 59 67 94 94 99 95 34 49 29 42 59 36 24 9 10 19 24 28 34 23 7 3 3 3 3 3 4 4 4 5 5 4 5 4
18 31 48 46 43 31 17 8 8 12 96 96 96 96 96 86 81 30 32 47 61 38 23 9 20 31 27 34 30 21 7 4 3 3 4 4 4 4 5 5 5 5 5
19 22 31 47 48 45 33 19 10 9 20 50 94 96 97 97 97 81 39 43 56 59 41 21 11 26 30 24 24 16 21 5 3 3 4 5 5 4 5 5 5 5 6
12 20 24 34 46 48 47 36 23 12 14 50 98 62 93 96 97 95 62 55 38 59 52 33 14 16 19 24 24 13 13 12 4 3 4 6 6 5 5 5 5 5 6
11 17 19 24 35 47 48 48 39 26 16 51 81 80 65 97 96 98 97 71 50 40 63 46 23 11 11 16 22 19 6 9 5 4 5 6 6 6 6 5 5 5 5
10 13 18 19 24 36 47 48 47 38 21 20 77 96 96 96 96 97 96 95 95 79 55 69 33 16 10 10 18 22 11 3 5 5 5 6 7 6 6 6 5 5 4
10 12 14 16 20 23 36 48 48 47 42 27 22 30 59 76 90 97 97 97 92 94 92 70 63 22 13 10 11 19 20 8 3 5 5 5 6 6 6 5 5 4 4
6 8 11 12 15 19 22 37 48 48 51 42 22 24 34 95 95 90 94 97 96 96 97 87 77 52 19 12 11 11 19 15 7 3 4 4 4 5 5 4 4 4 4
4 5 7 9 11 14 17 21 38 48 50 54 37 27 28 74 97 72 34 78 96 96 93 94 76 78 49 18 12 11 11 16 16 11 4 3 3 3 3 4 4 4 4
4 4 5 6 8 10 14 15 21 38 49 56 54 43 27 42 76 98 55 81 92 98 98 98 68 72 80 50 23 12 11 11 14 18 15 8 5 4 4 4 5 6 8
8 5 4 5 6 7 9 13 13 21 38 54 58 55 36 44 31 97 65 96 96 98 94 91 85 72 77 82 62 38 18 34 19 23 31 26 14 13 12 11 12 14 16
11 9 6 4 5 6 7 9 10 11 20 40 59 57 52 41 25 50 72 99 90 98 95 93 99 90 67 76 86 82 96 46 42 43 53 53 40 15 16 15 16 16 15
12 12 9 6 5 5 6 7 9 8 9 18 46 57 57 51 44 37 97 92 84 98 85 95 95 97 88 61 76 87 96 79 97 81 73 54 23 14 12 13 13 13 13
17 12 12 10 7 5 5 6 7 8 8 8 20 44 53 56 54 53 98 98 97 94 75 83 98 98 100 73 55 60 64 76 86 76 67 44 24 24 29 32 32 46 63
24 16 14 13 10 7 5 5 6 6 7 7 7 20 44 58 57 50 73 67 98 91 74 68 97 97 97 97 96 89 81 72 68 75 89 92 86 81 81 77 70 64 54
31 26 23 16 13 10 7 4 5 5 6 7 6 8 25 53 59 56 38 74 98 80 95 98 89 96 88 85 90 97 88 86 76 64 61 53 50 48 45 45 39 33 28
38 29 27 22 15 12 10 6 4 5 5 6 6 6 9 29 52 56 44 41 96 87 98 100 97 96 95 95 99 91 94 97 97 92 85 73 67 53 44 42 39 40 50
42 34 26 22 18 15 11 8 6 4 5 5 5 6 5 10 29 51 54 46 56 49 98 99 97 97 98 99 98 98 99 94 98 99 94 96 91 95 84 76 69 69 69
43 38 30 26 20 15 12 10 8 5 4 5 5 5 5 5 10 33 55 57 48 32 96 99 98 98 97 86 65 72 96 100 98 97 94 97 94 83 69 64 62 67 67
42 38 37 31 21 17 13 11 9 7 4 4 4 5 5 5 5 14 48 61 63 60 88 98 94 99 95 78 100 90 98 95 84 91 92 93 89 66 57 55 60 64 54
49 46 42 33 25 19 15 11 10 9 6 4 3 4 4 5 5 4 15 55 56 64 100 100 97 97 98 96 98 96 98 98 88 96 97 99 90 64 57 52 52 54 55
54 43 35 26 22 22 27 32 41 24 10 7 4 3 4 4 4 5 4 22 52 53 86 98 96 98 96 95 95 88 96 100 100 100 97 88 96 84 71 63 61 62 55
48 42 36 48 67 90 98 100 99 86 54 20 7 4 3 3 4 4 4 4 22 53 53 97 89 98 88 81 98 100 96 96 95 94 90 86 99 90 81 74 66 61 59
42 71 90 99 100 100 98 100 98 86 81 62 20 8 4 3 3 4 4 4 5 31 53 72 99 81 100 84 97 97 98 97 91 85 75 80 94 91 80 72 57 51 46
Wind_Speed
62 61 60 57 55 52 50 48 46 43 44 48 49 50 50 48 45 41 40 42 43 42 40 37 34 33 33 34 36 37 39 38 37 34 32 28 25 23 20 18 17 16 15
67 66 65 63 61 59 55 53 51 48 45 46 51 52 52 51 49 46 42 42 43 44 44 42 39 33 33 36 39 38 38 39 39 36 34 31 28 26 22 20 19 19 18
72 70 69 68 66 64 62 59 53 53 47 47 57 53 56 54 53 49 48 45 45 45 45 47 45 39 35 33 40 40 39 39 38 36 35 34 30 27 24 22 21 20 20
75 75 73 72 71 69 68 65 64 59 48 51 57 57 55 56 54 53 51 50 47 47 47 48 48 42 38 38 34 38 41 40 38 37 38 35 31 29 26 24 22 22 21
80 78 77 77 75 74 72 71 69 65 64 64 46 50 53 54 56 56 53 52 51 48 49 50 50 46 44 39 37 36 41 41 39 40 39 36 33 31 29 27 25 24 23
87 83 81 79 79 77 77 76 75 71 69 51 57 58 56 54 57 55 54 53 55 52 50 51 51 50 48 43 39 38 39 44 42 41 40 38 35 33 33 31 28 27 26
93 90 85 83 82 82 81 80 79 78 69 62 58 58 61 54 61 53 57 58 56 56 54 52 53 52 50 47 44 40 39 43 44 43 42 41 38 36 35 33 31 29 29
97 95 90 87 86 85 85 84 83 82 76 72 60 66 51 54 57 56 65 60 60 59 57 54 53 53 51 49 48 43 41 41 45 45 44 43 41 39 37 35 34 32 31
101 99 95 89 88 87 87 88 87 86 83 79 73 70 63 63 69 57 58 58 54 58 61 59 56 53 52 50 50 48 45 42 45 47 46 46 43 41 39 38 36 34 33
104 102 99 94 89 90 90 90 91 90 88 82 77 76 71 56 45 63 54 57 64 65 65 60 58 55 53 51 51 50 48 45 44 45 47 47 46 44 42 40 38 37 35
103 103 102 98 93 91 93 92 93 92 93 86 80 78 74 72 48 57 61 54 60 65 68 63 59 56 54 52 51 50 49 48 47 46 45 46 46 44 43 42 40 38 35
94 102 102 101 96 95 95 95 94 95 95 92 87 80 76 78 66 46 59 63 59 62 66 63 61 61 56 53 53 51 50 49 49 48 46 43 43 42 42 41 40 37 36
69 88 99 99 98 96 97 98 97 96 97 96 90 82 78 80 76 64 59 49 54 70 68 64 67 60 58 56 55 52 49 46 48 50 47 48 44 43 42 40 40 40 39
56 65 81 95 96 97 99 100 99 98 98 98 94 86 83 84 76 72 62 49 58 52 64 55 62 69 62 60 57 51 43 54 49 51 52 51 48 43 44 43 43 42 42
54 58 64 75 91 95 99 101 102 101 101 100 97 91 88 84 80 69 65 63 73 50 43 45 51 58 68 62 58 55 52 46 54 47 47 52 48 47 46 45 43 42 40
49 57 59 64 72 88 96 101 103 103 101 102 99 95 91 86 82 81 70 70 57 53 64 49 50 55 61 63 59 58 57 53 53 50 51 50 49 47 44 44 43 42 40
46 51 58 60 63 71 87 97 102 104 103 102 100 98 96 91 87 85 83 70 67 61 61 62 54 51 54 52 64 68 65 60 54 55 53 51 51 48 46 46 46 46 46
43 45 53 57 59 63 72 88 99 104 104 103 102 100 98 94 90 90 87 81 72 69 65 66 66 63 49 47 50 53 56 56 56 54 53 52 53 52 51 50 48 46 43
41 42 47 52 55 57 62 72 89 100 104 104 101 101 100 97 94 92 91 92 75 70 66 68 66 58 56 52 57 54 55 54 55 55 52 51 49 46 44 43 42 40 39
39 40 42 47 50 52 55 60 73 90 102 104 102 100 100 99 96 94 92 91 93 86 76 67 73 58 55 55 56 60 58 58 56 54 51 49 48 45 45 44 43 44 43
37 37 38 43 47 49 51 55 60 75 92 102 103 101 99 99 98 95 93 90 89 92 94 68 74 74 75 63 69 67 58 58 62 63 56 50 47 47 45 45 45 42 41
31 31 34 38 41 42 45 50 55 61 76 92 101 102 99 99 97 99 97 96 95 90 85 91 76 68 53 56 54 67 59 57 54 51 58 50 49 48 46 44 43 43 40
23 24 27 32 35 38 41 44 49 52 60 75 89 100 101 98 97 98 99 98 99 93 77 74 75 65 65 61 55 55 62 58 56 54 49 50 51 50 47 47 47 46 42
18 18 22 27 28 30 31 34 36 40 49 59 73 87 100 100 99 97 101 103 103 104 98 79 75 67 61 65 60 65 63 66 63 58 58 58 54 52 52 52 51 47 43
13 15 14 16 18 20 21 25 28 30 33 41 57 72 88 97 98 98 98 103 104 106 103 95 97 83 76 54 54 57 58 66 68 64 63 60 59 58 56 56 53 50 47
10 11 11 14 16 19 23 28 30 28 28 31 40 56 73 85 92 99 99 102 105 105 109 111 94 99 97 88 79 63 56 60 62 65 63 63 62 60 60 58 57 56 53
Wind_Direction
251 250 250 249 247 245 246 244 241 242 244 245 244 245 245 242 235 233 233 230 231 232 234 236 234 234 235 237 236 233 232 233 236 237 241 238 233 231 232 236 237 234 232
252 249 247 247 247 245 243 243 245 245 242 243 245 243 244 243 240 236 233 234 231 232 232 237 238 234 237 238 234 235 234 234 236 238 240 237 231 230 235 238 239 239 238
254 250 247 245 244 245 243 242 239 245 239 260 244 242 238 237 238 234 233 235 234 232 232 233 238 234 235 240 234 235 233 234 236 236 236 233 229 231 236 241 243 243 244
251 251 248 245 242 242 243 242 242 242 243 250 250 237 236 231 234 233 232 231 235 233 233 234 235 235 234 232 234 236 235 233 235 234 232 230 230 234 237 242 245 246 247
249 247 247 246 242 240 240 242 241 239 242 247 253 239 235 238 232 232 231 231 232 232 233 235 235 234 235 234 234 235 235 232 233 233 232 231 232 236 239 242 245 248 249
249 247 245 244 243 240 238 238 241 240 241 245 246 259 259 244 251 233 228 229 231 233 232 233 235 233 233 234 236 236 233 231 230 231 233 234 235 237 241 245 248 249 251
247 248 244 242 241 240 239 237 238 241 238 234 246 241 252 246 243 240 233 229 230 232 232 233 234 236 233 231 234 236 236 229 230 231 232 235 237 238 243 246 249 250 252
244 245 245 241 240 238 238 237 236 238 237 236 230 247 248 240 233 236 243 233 231 226 230 231 232 234 234 231 233 233 235 232 230 232 235 237 238 240 242 246 249 252 253
242 242 242 240 239 237 236 236 236 237 237 235 233 237 238 252 246 244 234 232 241 239 226 230 231 231 233 231 231 232 233 233 232 234 236 238 240 242 244 247 250 251 253
240 240 240 238 234 235 235 234 234 235 236 235 233 233 230 241 249 248 250 242 237 239 227 225 229 229 231 231 231 231 232 234 235 235 236 240 241 243 245 247 249 251 254
239 239 238 237 233 231 233 233 233 234 235 235 234 232 230 231 245 247 253 255 228 230 222 221 227 229 229 228 231 233 232 233 236 237 238 239 240 242 245 246 248 250 253
239 238 237 236 233 230 228 231 232 232 233 234 232 229 229 232 232 240 248 253 252 223 228 223 225 228 228 228 229 230 233 234 235 238 238 239 240 240 243 245 248 250 251
247 240 236 235 233 229 227 227 230 231 232 234 232 228 225 232 228 233 242 243 239 225 227 232 221 222 227 228 229 230 230 235 236 236 235 237 237 241 243 244 248 251 254
249 246 239 235 233 230 227 226 227 229 231 233 233 227 225 230 228 230 227 234 238 234 231 244 233 224 224 227 228 225 219 228 229 233 236 236 239 238 246 247 249 252 255
250 245 243 238 234 230 227 225 225 226 229 230 232 229 225 226 227 223 225 227 232 231 239 251 240 236 223 225 226 225 223 226 229 233 235 238 239 241 242 244 247 249 252
255 244 241 241 236 232 227 226 225 225 226 229 230 229 226 222 224 219 221 230 228 238 243 246 233 232 228 228 227 227 227 230 233 235 235 238 238 238 240 243 247 250 253
254 248 239 238 238 235 231 226 225 226 225 227 228 228 228 223 220 219 225 224 225 228 228 236 233 227 225 228 231 231 229 228 232 234 237 238 239 240 242 246 249 252 255
252 249 242 237 237 237 234 229 226 225 225 226 227 227 227 225 221 219 220 220 225 223 230 232 243 225 229 234 231 231 233 231 232 234 235 239 241 243 244 246 248 250 251
251 247 242 239 236 237 236 233 229 226 225 225 226 226 225 225 223 219 218 218 223 225 224 228 227 216 221 234 231 236 232 234 231 233 231 233 234 236 238 239 241 244 247
253 247 243 240 238 238 238 235 232 229 225 225 226 226 224 224 223 221 218 219 221 223 225 220 222 218 220 228 231 232 230 237 229 229 228 229 230 235 240 244 247 248 250
254 248 244 239 238 238 239 238 234 232 229 226 225 226 226 224 223 221 219 216 217 220 223 215 220 224 233 245 248 235 239 234 234 231 228 232 237 241 243 245 246 246 248
252 248 242 238 237 237 239 240 239 234 232 229 226 225 226 224 222 221 218 215 216 219 224 232 223 226 232 231 216 234 228 230 233 235 227 230 236 238 239 240 242 242 245
255 245 237 236 239 241 240 238 239 237 234 232 230 227 226 225 222 220 219 217 217 215 206 214 217 222 217 225 218 226 226 227 234 232 227 229 229 234 236 237 240 242 247
253 236 240 247 243 237 230 228 233 238 235 233 233 230 227 225 223 220 218 218 216 216 219 215 221 204 206 211 226 226 228 230 229 225 229 228 233 236 239 242 244 246 250
245 247 219 205 202 216 220 231 240 244 240 234 233 232 230 227 225 222 218 219 217 217 220 218 221 215 212 217 214 220 226 229 230 231 233 233 235 235 243 247 248 251 253
172 167 185 202 213 228 234 236 243 252 248 237 230 232 232 230 227 224 220 218 218 217 220 221 219 226 226 221 232 225 226 223 229 231 233 236 238 238 240 244 251 252 254